Location: Kershaw
(34.5481°N, 80.5823°W)
Time: 15:28:10
(UTC+00:00)

Vanguard 1 Rocket - Pass Details

Date: 07 October 2022
Orbit: 650 x 4225 km, 34.3° (Epoch: 08 December)

Event Time Altitude Azimuth Distance (km) Brightness Sun altitude
Rises 05:25:16 0° 285° (WNW) 6,346 11.8 -60.7°
Enters shadow 05:28:46 - 283° (WNW) 5,257 11.3 -60.6°
Reaches altitude 10° 05:30:25 10° 281° (WNW) 4,725 - -60.6°
Maximum altitude 05:41:15 47° 213° (SSW) 1,690 - -60.1°
Drops below altitude 10° 05:47:13 10° 140° (SE) 2,634 - -59.7°
Sets 05:49:19 0° 133° (SE) 3,362 - -59.6°
